This demonstration page uses our WeatherBlox Daily Observations layout. Learn more.

Left ArrowRight Arrow

Hourly Observations for August 24, 2022

Temp ( °F °C ) Dew Point ( °F °C ) Humidity (%) Winds ( mph kmh ) Pressure ( in mb ) Visibility ( mi km ) Precip ( " mm )
12:52 am 00:52 Mostly Cloudy 75 23.9 64 17.8 69 69 S 8 13 29.97 1015 10 16 0.00 0.00
1:52 am 01:52 Mostly Cloudy 72 22.2 65 18.3 79 79 SSE 12 19 29.97 1015 10 16 0.00 0.00
2:52 am 02:52 Mostly Cloudy 72 22.2 65 18.3 79 79 SSE 9 15 29.96 1015 10 16 0.00 0.00
3:52 am 03:52 Mostly Cloudy 72 22.2 64 17.8 76 76 SSE 9 15 29.96 1015 10 16 0.00 0.00
4:52 am 04:52 Mostly Cloudy 71 21.7 63 17.2 76 76 SSE 8 13 29.97 1015 10 16 0.00 0.00
5:52 am 05:52 Mostly Cloudy 69 20.6 63 17.2 81 81 SE 7 11 29.98 1015 10 16 0.00 0.00
6:52 am 06:52 Mostly Cloudy 70 21.1 64 17.8 81 81 SSE 7 11 30.00 1016 10 16 0.00 0.00
7:52 am 07:52 Mostly Cloudy 73 22.8 64 17.8 73 73 S 5 7 30.02 1017 10 16 0.00 0.00
8:52 am 08:52 Mostly Cloudy 75 23.9 63 17.2 66 66 SW 7 11 30.03 1017 10 16 0.00 0.00
9:52 am 09:52 Mostly Cloudy 77 25 63 17.2 62 62 W 7 11 30.04 1017 8 13 0.00 0.00
10:52 am 10:52 Mostly Cloudy 78 25.6 63 17.2 60 60 WSW 8 13 30.04 1017 10 16 0.00 0.00
11:52 am 11:52 Mostly Cloudy 82 27.8 63 17.2 53 53 W 9 15 30.02 1017 10 16 0.00 0.00
12:52 pm 12:52 Mostly Cloudy 85 29.4 65 18.3 51 51 SSW 10 17 30.01 1016 10 16 0.00 0.00
1:52 pm 13:52 Mostly Cloudy 88 31.1 65 18.3 47 47 W 9 15 30.00 1016 10 16 0.00 0.00
2:52 pm 14:52 Mostly Cloudy 87 30.6 63 17.2 45 45 WSW 9 15 29.99 1016 10 16 0.00 0.00
3:52 pm 15:52 Mostly Cloudy 88 31.1 65 18.3 47 47 WSW 7 11 29.97 1015 10 16 0.00 0.00
4:52 pm 16:52 Mostly Cloudy 89 31.7 63 17.2 42 42 WSW 10 17 29.96 1015 10 16 0.00 0.00
5:52 pm 17:52 Mostly Sunny 90 32.2 63 17.2 41 41 Calm 29.95 1014 10 16 0.00 0.00
6:52 pm 18:52 Mostly Sunny 89 31.7 62 16.7 41 41 W 3 6 29.94 1014 10 16 0.00 0.00
7:52 pm 19:52 Partly Cloudy 84 28.9 66 18.9 55 55 NNW 3 6 29.95 1014 10 16 0.00 0.00
8:52 pm 20:52 Partly Cloudy 79 26.1 69 20.6 72 72 ESE 3 6 29.97 1015 10 16 0.00 0.00
9:52 pm 21:52 Partly Cloudy 79 26.1 68 20 69 69 SE 3 6 29.98 1015 10 16 0.00 0.00
10:52 pm 22:52 Partly Cloudy 76 24.4 67 19.4 74 74 Calm 29.99 1016 10 16 0.00 0.00
11:52 pm 23:52 Partly Cloudy 70 21.1 67 19.4 90 90 N 5 7 30.00 1016 10 16 0.00 0.00

Powered by AerisWeather